Change the Weather History Date:

Friday, November 29, 2013

  Actual Average Record
Temperature  
Mean Temperature 37 °F 25 °F  
Max Temperature 56 °F 35 °F 56 °F (2013)
Min Temperature 17 °F 15 °F -7 °F (2006)
Degree Days  
Heating Degree Days 28 40  
Month to date heating degree days 934 957  
Since 1 July heating degree days 1764 1858  
Cooling Degree Days 0 0  
Month to date cooling degree days 0 0  
Year to date cooling degree days 587 513  
Moisture  
Dew Point 20 °F    
Average Humidity 59    
Maximum Humidity 92    
Minimum Humidity 26    
Precipitation  
Precipitation 0.00 in 0.00 in 0.07 in (2010)
Month to date precipitation 0.00 0.31  
Year to date precipitation 12.15 14.23  
Sea Level Pressure  
Sea Level Pressure 30.02 in    
Wind  
Wind Speed 9 mph (WSW)    
Max Wind Speed 24 mph    
Max Gust Speed 28 mph    
T = Trace of Precipitation, MM = Missing Value Source: NWS Daily Summary

Daily Weather History Graph

Daily Weather History Graph

Search for Another Location

Airport or City:

Trip Planner

Search our weather history database for the weather conditions in past years. The results will help you decide how hot, cold, wet, or windy it might be!

Date:

Astronomy

Nov. 29, 2013 Rise Set
Actual Time 7:12 AM MST 4:12 PM MST
Civil Twilight 6:38 AM MST 4:46 PM MST
Nautical Twilight 6:01 AM MST 5:23 PM MST
Astronomical Twilight 5:26 AM MST 5:58 PM MST
Moon 3:10 AM MST (11/29) 2:07 PM MST (11/29)
Length of Visible Light 10h 07m
Length of Day
9h 00m
Waning Crescent, 13% of the Moon is Illuminated
Nov 29
Waning Crescent
Dec 2
New
Dec 9
First Quarter
Dec 17
Full
Dec 25
Last Quarter

Hourly Weather History & Observations

Time (MST) Temp. Windchill Dew Point Humidity Pressure Visibility Wind Dir Wind Speed Gust Speed Precip Events Conditions
12:56 AM 18.0 °F 8.7 °F 15.1 °F 88% 30.09 in - SSE 6.9 mph - N/A   Unknown
1:56 AM 19.9 °F 9.3 °F 18.0 °F 92% 30.07 in - South 9.2 mph - N/A   Unknown
2:56 AM 19.9 °F 13.4 °F 18.0 °F 92% 30.06 in - SSW 4.6 mph - N/A   Unknown
3:56 AM 19.9 °F 14.9 °F 17.1 °F 89% 30.05 in - South 3.5 mph - N/A   Unknown
4:56 AM 18.0 °F 11.1 °F 15.1 °F 88% 30.04 in - SSE 4.6 mph - N/A   Unknown
5:56 AM 18.0 °F - 12.9 °F 81% 30.05 in - Calm Calm - N/A   Unknown
6:56 AM 17.1 °F - 12.9 °F 84% 30.04 in - Calm Calm - N/A   Unknown
7:56 AM 18.0 °F 9.8 °F 14.0 °F 84% 30.04 in - West 5.8 mph - N/A   Unknown
8:56 AM 28.9 °F 21.9 °F 25.0 °F 85% 30.04 in - WNW 6.9 mph - N/A   Unknown
9:56 AM 39.9 °F 34.5 °F 30.0 °F 68% 30.03 in - West 8.1 mph - N/A   Unknown
10:56 AM 50.0 °F - 25.0 °F 38% 30.01 in - WNW 19.6 mph - N/A   Unknown
11:56 AM 52.0 °F - 23.0 °F 32% 29.99 in - West 16.1 mph - N/A   Unknown
12:56 PM 54.0 °F - 23.0 °F 30% 29.97 in - West 19.6 mph - N/A   Unknown
1:56 PM 55.9 °F - 21.9 °F 27% 29.96 in - WNW 23.0 mph 26.5 mph N/A   Unknown
2:56 PM 54.0 °F - 21.9 °F 29% 29.97 in - West 15.0 mph - N/A   Unknown
3:56 PM 48.9 °F - 21.9 °F 35% 29.99 in - WNW 8.1 mph - N/A   Unknown
4:56 PM 43.0 °F 37.7 °F 21.0 °F 42% 30.02 in - WNW 9.2 mph - N/A   Unknown
5:56 PM 39.0 °F 35.7 °F 21.0 °F 49% 30.04 in - West 4.6 mph - N/A   Unknown
6:56 PM 35.1 °F 29.3 °F 21.0 °F 57% 30.05 in - SW 6.9 mph - N/A   Unknown
7:56 PM 33.1 °F 25.5 °F 21.0 °F 61% 30.05 in - WSW 9.2 mph - N/A   Unknown
8:56 PM 34.0 °F 27.2 °F 21.0 °F 59% 30.03 in - WSW 8.1 mph - N/A   Unknown
9:56 PM 37.9 °F 35.5 °F 21.9 °F 53% 30.01 in - West 3.5 mph - N/A   Unknown
10:56 PM 33.1 °F 27.7 °F 21.0 °F 61% 29.99 in - West 5.8 mph - N/A   Unknown
11:56 PM 30.9 °F 24.3 °F 21.0 °F 67% 29.99 in - WNW 6.9 mph - N/A   Unknown